Other Public Products
Issued by NWS Charleston, SC

Current Version | Previous Version | Graphics & Text | Print | Product List | Glossary On
Versions: 1 2 3 4 5 6 7 8 9 10 11 12 13 14 15 16 17 18 19 20 21 22 23 24 25 26 27 28 29 30 31 32 33 34 35 36 37 38 39 40 41 42 43 44 45 46 47 48 49 50
000
FPUS82 KCHS 081412
OPUCHS

TEST...KCHS/KSAV Gateway Observations...TEST
National Weather Service Charleston SC
900 AM EST THU DEC 08 2016

NOTE: "fair" indicates few or no clouds below 12,000 feet with no
significant weather and/or obstructions to visibility.

SCZ050-WAZ558-NCZ071-TXZ119-213-PAZ071-DCZ001-FLZ074-172-MI076-
NYZ176-178-MAZ016-IL014-TNZ027-NJZ106-GAZ044-MD014-081500-
...Gateway Observations for Charleston International...

CITY           SKY/WX    TMP DP  RH WIND       PRES   REMARKS
Chas Airport   PTSUNNY   56  52  86 W7        30.11R
Seattle        MOCLDY    33  13  43 E17G25    30.12F WCI  22
Charlotte      CLOUDY    50  47  89 NW6       30.11R
Dallas DFW     CLOUDY    32  22  66 N20G31    30.56R WCI  20
Dallas Love    CLOUDY    35  22  58 N22G30    30.57R WCI  23
Philladelphia  CLOUDY    39  31  72 W7        30.03R WCI  34
Wash National  CLOUDY    45  33  63 CALM      30.06R
Baltimore      CLOUDY    42  32  67 W5        30.04R
Miami          PTSUNNY   76  75  97 CALM      30.10S
Detroit        CLOUDY    29  19  66 W14G23    30.06R WCI  18
Newark         CLOUDY    39  29  67 SW10      29.99R WCI  32
Laguardia      CLOUDY    44  27  51 VRB5      29.98S
J F K          CLOUDY    42  31  64 W12       29.99F
Boston Logan   CLOUDY    39  35  86 SW8       29.93F WCI  33
Ft. Lauderdale PTSUNNY   77  75  93 CALM      30.10R
Chicago O`Hare CLOUDY    17   8  67 W18G28    30.22R WCI   1
Chicago Midway FLURRIES  18   8  65 W20G29    30.24R WCI   2
Houston Bush   CLOUDY    48  45  89 N25       30.35R
Houston Hobby  CLOUDY    52  48  86 N20G29    30.32R
Nashville      PTSUNNY   34  19  54 NW9       30.39R WCI  27
Atlanta        CLOUDY    43  31  62 NW15      30.20R

$$

GAZ044-118-TXZ119-213-NCZ071-DCZ001-MDZ014-506-PAZ021-071-NJZ106-
NYZ176-178-MAZ106-OHZ011-021-055-MIZ076-KYZ091-ILZ014-INZ047-
MNZ060-081500-
...Gateway Observations for Savannah International...

CITY           SKY/WX    TMP DP  RH WIND       PRES   REMARKS
Savannah Arpt  MOSUNNY   52  46  80 W10       30.16R
Atlanta        CLOUDY    43  31  62 NW15      30.20R
Charlotte      CLOUDY    50  47  89 NW6       30.11R
Dallas DFW     CLOUDY    32  22  66 N20G31    30.56R WCI  20
Houston Bush   CLOUDY    48  45  89 N25       30.35R
Wash National  CLOUDY    45  33  63 CALM      30.06R
Wash Dulles    CLOUDY    39  33  79 CALM      30.05R
Baltimore      CLOUDY    42  32  67 W5        30.04R
Philadelphia   CLOUDY    39  31  72 W7        30.03R WCI  34
Newark         CLOUDY    39  29  67 SW10      29.99R WCI  32
Laguardia      CLOUDY    44  27  51 VRB5      29.98S
J F K          CLOUDY    42  31  64 W12       29.99F
Boston         CLOUDY    39  35  86 SW8       29.93F WCI  33
Pittsburg      PTSUNNY   32  23  69 W14G20    30.04R WCI  22
Akron          CLOUDY    26  16  65 NW15G26   30.08R WCI  14
Cleveland      FLURRIES  27  16  63 W17       30.12R WCI  14
Cincinnati     MOSUNNY   25  17  72 W16       30.25R WCI  12
Columbus         N/A     26  18  72 W12G17    30.19R WCI  16
Detroit        CLOUDY    29  19  66 W14G23    30.06R WCI  18
Chicago O`Hare CLOUDY    17   8  67 W18G28    30.22R WCI   1
Minneapolis    PTCLDY    18  12  77 NW13      30.28R WCI   5
Indianapolis   MOCLDY    21  13  71 W17       30.28R WCI   7

$$




USA.gov is the U.S. government's official web portal to all federal, state and local government web resources and services.